Powrót do katalogu

MISRSAT-2

AktywnyNaukaSSO
NORAD 58497·PAYLOAD·🇪🇬 Egypt

Wystrzelony Dec 4, 2023 z Jiuquan Satellite Launch Center

Loading…

Następne Przeloty (najbliższe 24 godziny)

TLE

ŚwieżeSource: Space-Track

Epoka: Sep 14, 2026, 15:22 UTC

1 58497U 23187B   26257.64093881  .00000846  00000-0  10960-3 0  9992
2 58497  97.9224 338.8632 0010274 208.4601 151.6053 14.83416257150307

Śledź MISRSAT-2 w czasie rzeczywistym z AllMySat

Download on the App Store